IRIDIUM 128

Last updated on Fri Sep 11 2026 00:03:06 GMT+0000 (Coordinated Universal Time)

1 42811U 17039J 26253.32674257 .00000078 00000+0 20670-4 0 9993 2 42811 86.4026 349.5702 0002137 92.9611 267.1829 14.34217352482185
UTC large
Height (km)
Speed (km/s)
/
Latitude / Longitude
Inclination (degrees)
Orbital Period (minutes)
Azimuth
Elevation
Range (km)
Doppler Factor

Next 0 passes for location: London (51.5072 / 0.1276)

No passes found over London.
IRIDIUM 128